TimeCDT,TemperatureF,Dew PointF,Humidity,Sea Level PressureIn,VisibilityMPH,Wind Direction,Wind SpeedMPH,Gust SpeedMPH,PrecipitationIn,Events,Conditions,WindDirDegrees,DateUTC
12:52 AM,57.9,53.1,84,29.94,10.0,SE,4.6,-,N/A,,Clear,140,2013-09-30 05:52:00
1:52 AM,55.0,53.1,93,29.94,10.0,SE,4.6,-,N/A,,Clear,140,2013-09-30 06:52:00
2:16 AM,57.0,54.0,89,29.95,10.0,SE,6.9,-,N/A,,Scattered Clouds,140,2013-09-30 07:16:00
2:25 AM,57.9,55.9,93,29.95,9.0,SE,6.9,-,N/A,,Mostly Cloudy,140,2013-09-30 07:25:00
2:37 AM,59.0,57.9,96,29.94,1.0,SE,6.9,-,N/A,,Overcast,140,2013-09-30 07:37:00
2:47 AM,60.8,59.0,94,29.94,0.5,SE,9.2,-,N/A,Fog,Fog,140,2013-09-30 07:47:00
2:52 AM,60.1,59.0,96,29.92,0.5,SE,9.2,-,N/A,Fog,Fog,140,2013-09-30 07:52:00
3:52 AM,62.1,61.0,96,29.90,1.0,SSE,12.7,-,N/A,,Mist,160,2013-09-30 08:52:00
4:28 AM,62.1,62.1,100,29.93,0.5,SSE,8.1,-,N/A,Fog,Fog,160,2013-09-30 09:28:00
4:40 AM,62.1,62.1,100,29.93,2.0,SSE,10.4,-,N/A,,Overcast,160,2013-09-30 09:40:00
4:48 AM,62.6,62.6,100,29.94,8.0,SSE,8.1,-,N/A,,Overcast,160,2013-09-30 09:48:00
4:52 AM,62.1,62.1,100,29.91,10.0,SSE,10.4,-,N/A,,Overcast,160,2013-09-30 09:52:00
5:52 AM,63.0,62.1,97,29.92,3.0,South,8.1,-,N/A,,Overcast,170,2013-09-30 10:52:00
6:52 AM,63.0,62.1,97,29.93,9.0,South,8.1,-,N/A,,Overcast,170,2013-09-30 11:52:00
7:16 AM,63.0,62.1,97,29.95,1.5,SSE,11.5,-,N/A,,Overcast,160,2013-09-30 12:16:00
7:52 AM,63.0,62.1,97,29.93,1.5,SSE,9.2,-,N/A,,Overcast,160,2013-09-30 12:52:00
7:59 AM,63.0,63.0,100,29.95,5.0,SSE,9.2,-,N/A,,Overcast,160,2013-09-30 12:59:00
8:52 AM,63.0,62.1,97,29.94,8.0,SSE,9.2,-,N/A,,Overcast,160,2013-09-30 13:52:00
9:52 AM,64.9,63.0,93,29.94,10.0,SSE,11.5,-,N/A,,Overcast,150,2013-09-30 14:52:00
10:52 AM,66.9,63.0,87,29.94,10.0,SSE,8.1,-,N/A,,Overcast,160,2013-09-30 15:52:00
11:52 AM,68.0,63.0,84,29.94,10.0,South,10.4,-,N/A,,Overcast,180,2013-09-30 16:52:00
12:38 PM,70.0,63.0,78,29.94,10.0,South,12.7,-,N/A,,Overcast,180,2013-09-30 17:38:00
12:52 PM,70.0,63.0,78,29.92,10.0,South,10.4,-,N/A,,Overcast,190,2013-09-30 17:52:00
1:34 PM,71.1,63.0,75,29.93,10.0,South,9.2,-,N/A,,Overcast,180,2013-09-30 18:34:00
1:52 PM,73.9,63.0,68,29.90,10.0,South,9.2,-,N/A,,Mostly Cloudy,190,2013-09-30 18:52:00
2:52 PM,75.0,61.0,62,29.88,10.0,South,9.2,-,N/A,,Scattered Clouds,190,2013-09-30 19:52:00
3:52 PM,77.0,61.0,58,29.86,10.0,South,8.1,-,N/A,,Scattered Clouds,170,2013-09-30 20:52:00
4:52 PM,75.9,61.0,60,29.85,10.0,SE,12.7,-,N/A,,Clear,140,2013-09-30 21:52:00
5:52 PM,75.0,62.1,64,29.86,10.0,SSE,9.2,-,N/A,,Clear,150,2013-09-30 22:52:00
6:52 PM,72.0,62.1,71,29.86,10.0,SSE,8.1,-,N/A,,Clear,150,2013-09-30 23:52:00
7:52 PM,68.0,61.0,78,29.87,10.0,SE,5.8,-,N/A,,Partly Cloudy,140,2013-10-01 00:52:00
8:52 PM,66.9,61.0,81,29.89,10.0,SE,9.2,-,N/A,,Partly Cloudy,140,2013-10-01 01:52:00
9:52 PM,68.0,63.0,84,29.88,10.0,SSE,11.5,-,N/A,,Clear,150,2013-10-01 02:52:00
10:52 PM,66.9,63.0,87,29.90,10.0,SSE,9.2,-,N/A,,Clear,160,2013-10-01 03:52:00
11:52 PM,66.9,64.0,90,29.90,10.0,SSE,9.2,-,N/A,,Mostly Cloudy,150,2013-10-01 04:52:00